Weather History for College Park, MD

Change the Weather History Date:

Monday, January 21, 2013

  Actual Average Record
Temperature  
Mean Temperature 39 °F -  
Max Temperature 46 °F 41 °F 65 °F (1959)
Min Temperature 32 °F 24 °F -5 °F (1985)
Degree Days  
Heating Degree Days 26    
Moisture  
Dew Point 21 °F    
Average Humidity 52    
Maximum Humidity 64    
Minimum Humidity 41    
Precipitation  
Precipitation 0.00 in - - ()
Sea Level Pressure  
Sea Level Pressure 29.99 in    
Wind  
Wind Speed 3 mph (ENE)    
Max Wind Speed 16 mph    
Max Gust Speed 25 mph    
Visibility 10 miles    
Events      
Averages and records for this station are not official NWS values.
T = Trace of Precipitation, MM = Missing Value Source: NWS Daily Summary

Daily Weather History Graph

Daily Weather History Graph

Search for Another Location

Airport:

Trip Planner

Search our weather history database for the weather conditions in past years. The results will help you decide how hot, cold, wet, or windy it might be!

Date:

Astronomy

Jan. 21, 2013 Rise Set
Actual Time 7:22 AM EST 5:16 PM EST
Civil Twilight 6:53 AM EST 5:45 PM EST
Nautical Twilight 6:20 AM EST 6:17 PM EST
Astronomical Twilight 5:48 AM EST 6:49 PM EST
Moon 12:55 PM EST (1/21) 2:48 AM EST (1/21)
Length of Visible Light 10h 52m
Length of Day
9h 54m
Waxing Gibbous, 75% of the Moon is Illuminated
Jan 21
Waxing Gibbous
Jan 26
Full
Feb 3
Last Quarter
Feb 10
New
Feb 17
First Quarter

Hourly Weather History & Observations

Time (EST) Temp. Windchill Dew Point Humidity Pressure Visibility Wind Dir Wind Speed Gust Speed Precip Events Conditions
12:15 AM 36.5 °F - 20.1 °F 52% 30.09 in 10.0 mi Calm Calm - N/A   Clear
12:35 AM 36.7 °F - 18.7 °F 48% 30.09 in 10.0 mi Calm Calm - N/A   Clear
12:55 AM 36.7 °F - 18.0 °F 47% 30.09 in 10.0 mi Calm Calm - N/A   Clear
1:15 AM 36.5 °F - 18.3 °F 48% 30.09 in 10.0 mi Calm Calm - N/A   Clear
1:40 AM 35.6 °F 31.7 °F 18.7 °F 50% 30.09 in 10.0 mi North 4.6 mph - N/A   Clear
2:00 AM 35.6 °F - 18.0 °F 49% 30.11 in 10.0 mi Calm Calm - N/A   Clear
2:20 AM 34.7 °F - 18.9 °F 52% 30.11 in 10.0 mi Calm Calm - N/A   Clear
2:40 AM 34.3 °F 31.4 °F 19.0 °F 54% 30.11 in 10.0 mi NNE 3.5 mph - N/A   Clear
3:05 AM 34.7 °F 30.6 °F 19.0 °F 53% 30.11 in 10.0 mi North 4.6 mph - N/A   Clear
3:25 AM 34.3 °F - 18.9 °F 53% 30.11 in 10.0 mi Calm Calm - N/A   Clear
3:45 AM 34.2 °F 31.2 °F 18.7 °F 53% 30.10 in 10.0 mi NNE 3.5 mph - N/A   Clear
4:10 AM 34.0 °F 29.8 °F 18.1 °F 52% 30.10 in 10.0 mi East 4.6 mph - N/A   Clear
4:30 AM 33.4 °F 30.4 °F 19.0 °F 56% 30.10 in 10.0 mi East 3.5 mph - N/A   Clear
4:50 AM 32.9 °F 29.8 °F 18.5 °F 55% 30.10 in 10.0 mi East 3.5 mph - N/A   Clear
5:35 AM 32.9 °F - 18.5 °F 55% 30.10 in 10.0 mi Calm Calm - N/A   Clear
5:55 AM 32.9 °F - 18.5 °F 55% 30.11 in 10.0 mi Calm Calm - N/A   Clear
6:15 AM 32.5 °F - 19.0 °F 58% 30.11 in 10.0 mi Calm Calm - N/A   Clear
6:35 AM 32.5 °F - 18.9 °F 57% 30.12 in 10.0 mi Calm Calm - N/A   Clear
7:00 AM 32.5 °F - 19.2 °F 58% 30.12 in 10.0 mi Calm Calm - N/A   Clear
7:20 AM 32.4 °F - 19.2 °F 58% 30.11 in 10.0 mi Calm Calm - N/A   Clear
8:00 AM 32.9 °F 29.8 °F 19.8 °F 59% 30.11 in 10.0 mi East 3.5 mph - N/A   Mostly Cloudy
8:25 AM 33.4 °F 29.1 °F 19.9 °F 58% 30.11 in 10.0 mi East 4.6 mph - N/A   Overcast
8:45 AM 34.2 °F 30.0 °F 20.8 °F 58% 30.11 in 10.0 mi East 4.6 mph - N/A   Overcast
9:05 AM 35.8 °F 30.9 °F 21.2 °F 55% 30.11 in 10.0 mi East 5.8 mph - N/A   Overcast
9:25 AM 36.7 °F 32.0 °F 21.7 °F 55% 30.10 in 10.0 mi East 5.8 mph - N/A   Overcast
9:50 AM 37.9 °F 34.4 °F 22.3 °F 53% 30.09 in 10.0 mi ESE 4.6 mph - N/A   Mostly Cloudy
10:10 AM 38.3 °F 33.2 °F 22.6 °F 53% 30.09 in 10.0 mi ESE 6.9 mph - N/A   Mostly Cloudy
10:30 AM 37.8 °F 34.2 °F 21.9 °F 53% 30.09 in 10.0 mi South 4.6 mph - N/A   Overcast
10:50 AM 38.3 °F 34.8 °F 22.1 °F 52% 30.07 in 10.0 mi South 4.6 mph - N/A   Overcast
11:15 AM 38.5 °F 33.4 °F 22.1 °F 52% 30.05 in 10.0 mi SSE 6.9 mph - N/A   Overcast
11:35 AM 38.8 °F 35.4 °F 21.9 °F 51% 30.03 in 10.0 mi SE 4.6 mph - N/A   Overcast
11:55 AM 39.4 °F 35.2 °F 22.8 °F 52% 30.01 in 10.0 mi SE 5.8 mph - N/A   Overcast
12:20 PM 40.5 °F 36.5 °F 22.3 °F 48% 29.99 in 10.0 mi SSE 5.8 mph - N/A   Overcast
1:00 PM 41.5 °F 38.6 °F 22.3 °F 46% 29.96 in 10.0 mi SE 4.6 mph - N/A   Mostly Cloudy
1:20 PM 42.1 °F 38.4 °F 23.5 °F 48% 29.94 in 10.0 mi ESE 5.8 mph - N/A   Overcast
2:05 PM 43.3 °F 39.2 °F 23.0 °F 45% 29.89 in 10.0 mi SSE 6.9 mph - N/A   Overcast
2:25 PM 45.9 °F 42.3 °F 23.5 °F 41% 29.88 in 10.0 mi SSE 6.9 mph - N/A   Overcast
2:40 PM 45.9 °F 42.3 °F 23.9 °F 42% 29.86 in 10.0 mi SSE 6.9 mph - N/A   Mostly Cloudy
3:10 PM 46.0 °F 43.9 °F 25.0 °F 44% 29.84 in 10.0 mi ESE 4.6 mph - N/A   Clear
3:30 PM 46.6 °F - 25.3 °F 43% 29.83 in 10.0 mi ESE 3.5 mph - N/A   Clear
3:45 PM 45.9 °F 42.9 °F 25.5 °F 45% 29.83 in 10.0 mi East 5.8 mph - N/A   Scattered Clouds
4:10 PM 45.5 °F 43.2 °F 25.7 °F 46% 29.81 in 10.0 mi East 4.6 mph - N/A   Scattered Clouds
4:35 PM 43.9 °F 42.3 °F 26.8 °F 51% 29.81 in 10.0 mi East 3.5 mph - N/A   Scattered Clouds
4:55 PM 43.7 °F 41.1 °F 28.0 °F 54% 29.81 in 10.0 mi East 4.6 mph - N/A   Mostly Cloudy
5:15 PM 43.2 °F - 28.4 °F 56% 29.81 in 10.0 mi Calm Calm - N/A   Overcast
5:35 PM 43.0 °F 39.5 °F 29.3 °F 59% 29.81 in 10.0 mi North 5.8 mph - N/A   Overcast
6:00 PM 42.1 °F 36.6 °F 29.7 °F 61% 29.84 in 10.0 mi NNW 9.2 mph - N/A   Overcast
6:20 PM 41.9 °F 35.9 °F 27.1 °F 56% 29.86 in 10.0 mi NNW 10.4 mph - N/A   Overcast
6:40 PM 41.2 °F 37.3 °F 25.9 °F 55% 29.86 in 10.0 mi North 5.8 mph 16.1 mph N/A   Overcast
7:00 PM 40.1 °F 36.1 °F 27.3 °F 60% 29.87 in 10.0 mi North 5.8 mph - N/A   Scattered Clouds
7:25 PM 39.2 °F 34.2 °F 27.3 °F 62% 29.88 in 10.0 mi North 6.9 mph - N/A   Scattered Clouds
7:45 PM 38.3 °F 31.4 °F 27.1 °F 64% 29.89 in 10.0 mi North 10.4 mph 19.6 mph N/A   Clear
8:05 PM 38.3 °F 34.8 °F 18.7 °F 45% 29.90 in 10.0 mi NNW 4.6 mph - N/A   Scattered Clouds
8:25 PM 37.0 °F 31.0 °F 18.3 °F 47% 29.90 in 10.0 mi NNW 8.1 mph - N/A   Scattered Clouds
8:50 PM 35.8 °F 33.0 °F 18.1 °F 49% 29.91 in 10.0 mi NW 3.5 mph - N/A   Clear
9:05 PM 35.4 °F 32.6 °F 18.1 °F 49% 29.91 in 10.0 mi North 3.5 mph 16.1 mph N/A   Clear
9:30 PM 34.7 °F 28.8 °F 18.1 °F 51% 29.91 in 10.0 mi NNW 6.9 mph - N/A   Clear
9:50 PM 34.2 °F 26.2 °F 18.3 °F 52% 29.92 in 10.0 mi NW 10.4 mph - N/A   Clear
10:15 PM 34.2 °F 27.5 °F 17.2 °F 50% 29.91 in 10.0 mi NW 8.1 mph - N/A   Clear
10:35 PM 34.0 °F 24.6 °F 14.5 °F 45% 29.92 in 10.0 mi WNW 13.8 mph 20.7 mph N/A   Clear
10:55 PM 33.8 °F 25.3 °F 12.4 °F 41% 29.92 in 10.0 mi NW 11.5 mph 25.3 mph N/A   Clear
11:20 PM 33.4 °F 23.1 °F 11.8 °F 41% 29.92 in 10.0 mi NW 16.1 mph 24.2 mph N/A   Clear
11:40 PM 33.1 °F 23.9 °F 12.6 °F 43% 29.93 in 10.0 mi NW 12.7 mph 21.9 mph N/A   Clear